Location: Écuvilly
(49.6505°N, 2.9206°E)
Time: 01:47:27
(UTC+00:00)

UNK - Pass Details

Date: 17 November 2025
Orbit: 655 x 672 km, 98.4° (Epoch: 13 December)

Event Time Altitude Azimuth Distance (km) Brightness Sun altitude
Rises 16:28:15 0° 20° (NNE) 3,035 6.7 -4.5°
Reaches altitude 10° 16:30:38 10° 29° (NNE) 2,116 5.8 -4.9°
Maximum altitude 16:34:56 37° 97° (E) 1,041 4.3 -5.5°
Drops below altitude 10° 16:39:12 10° 166° (SSE) 2,098 6.4 -6.1°
Sets 16:41:34 0° 174° (S) 3,006 7.3 -6.5°
